Stations météo

réclame
Mon MeteoGroup
Deelen, Pays-Bas (6275): Température de l'air & dewpoint: 14.10.2018 21:00:00 - 20.10.2018 21:00:00 (CEST)Deelen, Pays-Bas (6275): Température de l'air 5cm: 14.10.2018 21:00:00 - 20.10.2018 21:00:00 (CEST)Deelen, Pays-Bas (6275): Vitesse du vent & gusts: 14.10.2018 21:00:00 - 20.10.2018 21:00:00 (CEST)Deelen, Pays-Bas (6275): Direction du vent: 14.10.2018 21:00:00 - 20.10.2018 21:00:00 (CEST)Deelen, Pays-Bas (6275): reduced air pressure: 14.10.2018 21:00:00 - 20.10.2018 21:00:00 (CEST)Deelen, Pays-Bas (6275): visibility: 14.10.2018 21:00:00 - 20.10.2018 21:00:00 (CEST)Deelen, Pays-Bas (6275): Quantités de précipitations: 14.10.2018 21:00:00 - 20.10.2018 21:00:00 (CEST)
Date & Time tt [°C] td [°C] tt 5cm [°C] ff [km/h] ff [knt] fx [km/h] fx [knt] dd ppp [hPa] vv [km] rr [mm]
20.10.2018 21:00:00 7,6 7,1 4,9 0 0 7 4 N 1031,4 10 0,0
20.10.2018 20:00:00 10,9 9,0 9,8 2 1 4 2 NNW 1031,0 10 0,0
20.10.2018 19:00:00 11,5 9,0 10,3 4 2 7 4 SE 1030,9 10 0,0
20.10.2018 18:00:00 13,1 8,3 12,1 8 4 18 10 NW 1031,0 10 0,0
20.10.2018 17:00:00 14,9 8,1 15,9 9 5 18 10 W 1030,7 10 0,0
20.10.2018 16:00:00 14,4 8,1 14,5 9 5 14 8 NW 1031,1 10 0,0
20.10.2018 15:00:00 14,5 7,6 15,3 8 4 18 10 WSW 1031,1 10 0,0
20.10.2018 14:00:00 14,5 7,0 15,6 11 6 18 10 WNW 1031,4 10 0,0
20.10.2018 13:00:00 14,4 6,7 16,4 8 4 18 10 - 1031,9 10 0,0
20.10.2018 12:00:00 13,2 7,8 14,2 5 3 11 6 SW 1031,5 10 0,0
20.10.2018 11:00:00 9,2 7,0 9,9 4 2 7 4 - 1031,5 10 0,0
20.10.2018 10:00:00 3,9 3,5 2,9 2 1 4 2 ESE 1031,4 10 0,0
20.10.2018 09:00:00 1,1 0,5 0,1 2 1 4 2 - 1030,8 10 0,0
20.10.2018 08:00:00 0,2 -0,1 -1,0 0 0 4 2 N 1030,4 10 0,0
20.10.2018 07:00:00 0,3 0,2 -1,4 2 1 4 2 SSW 1029,9 9 0,0
20.10.2018 06:00:00 0,6 0,2 -1,5 2 1 4 2 N 1029,5 10 0,0
20.10.2018 05:00:00 1,2 1,0 -1,7 0 0 4 2 N 1028,6 3,5 0,0
20.10.2018 04:00:00 1,8 1,4 -0,6 2 1 4 2 - 1028,4 7 0,0
20.10.2018 03:00:00 2,4 1,9 0,1 2 1 4 2 - 1028,9 6 0,0
20.10.2018 02:00:00 4,1 3,7 1,4 2 1 4 2 - 1028,3 10 0,0
20.10.2018 01:00:00 4,7 4,4 2,5 2 1 7 4 - 1027,7 9 0,0
20.10.2018 00:00:00 6,9 5,8 6,1 2 1 7 4 NNW 1027,7 10 0,0
19.10.2018 23:00:00 6,2 5,5 4,5 4 2 11 6 NNW 1027,5 10 0,0
19.10.2018 22:00:00 6,9 5,8 4,1 4 2 7 4 - 1027,2 10 0,0
19.10.2018 21:00:00 7,9 6,4 4,9 8 4 11 6 NNW 1026,6 10 0,0
19.10.2018 20:00:00 8,1 6,4 5,0 8 4 11 6 N 1026,0 10 0,0
19.10.2018 19:00:00 9,7 7,2 6,7 9 5 11 6 NNW 1025,8 10 0,0
19.10.2018 18:00:00 13,1 8,2 12,8 11 6 18 10 NE 1024,7 10 0,0
19.10.2018 17:00:00 15,2 8,3 15,5 9 5 14 8 NE 1024,6 10 0,0
19.10.2018 16:00:00 14,9 7,6 16,2 8 4 14 8 - 1024,7 10 0,0
19.10.2018 15:00:00 15,7 7,3 18,1 5 3 14 8 ENE 1024,9 10 0,0
19.10.2018 14:00:00 14,6 7,3 17,0 8 4 22 12 - 1025,2 10 0,0
19.10.2018 13:00:00 13,7 7,8 15,6 13 7 22 12 ENE 1025,6 10 0,0
19.10.2018 12:00:00 12,3 7,3 13,6 - - - - - 1025,9 10 0,0
19.10.2018 11:00:00 10,4 7,3 11,2 9 5 18 10 - 1026,1 10 -
19.10.2018 10:00:00 7,7 6,4 7,3 9 5 14 8 ENE 1026,0 10 0,0
19.10.2018 09:00:00 6,1 5,5 5,1 8 4 14 8 ENE 1025,9 10 0,0
19.10.2018 08:00:00 5,5 5,0 3,8 8 4 11 6 NE 1025,7 10 0,0
19.10.2018 07:00:00 6,4 5,4 5,2 5 3 11 6 N 1025,6 10 0,0
19.10.2018 06:00:00 7,3 5,9 6,7 4 2 14 8 - 1025,5 10 0,0
19.10.2018 05:00:00 7,8 6,1 7,3 4 2 11 6 - 1025,6 10 0,0
19.10.2018 04:00:00 7,8 6,3 6,7 4 2 14 8 - 1025,6 10 0,0
19.10.2018 03:00:00 7,2 5,8 5,7 11 6 14 8 NE 1025,7 10 0,0
19.10.2018 02:00:00 7,1 5,6 4,4 5 3 14 8 ENE 1025,9 10 0,0
19.10.2018 01:00:00 7,5 6,1 5,4 11 6 18 10 NE 1026,1 10 0,0
19.10.2018 00:00:00 8,0 6,4 5,4 11 6 14 8 ENE 1026,2 10 0,0
18.10.2018 23:00:00 8,5 6,6 6,3 8 4 14 8 ENE 1026,3 10 0,0
18.10.2018 22:00:00 9,3 7,0 7,5 9 5 22 12 NE 1026,1 10 0,0
18.10.2018 21:00:00 10,2 7,3 8,2 15 8 29 16 NNE 1025,8 10 0,0
18.10.2018 20:00:00 11,5 7,7 9,9 15 8 22 12 NNE 1025,4 10 0,0
18.10.2018 19:00:00 11,6 8,0 8,6 11 6 18 10 NNE 1025,1 10 0,0
18.10.2018 18:00:00 14,7 8,2 14,1 15 8 22 12 NNE 1024,6 10 0,0
18.10.2018 17:00:00 14,5 8,4 14,0 21 11 29 16 N 1024,6 10 0,0
18.10.2018 16:00:00 16,0 9,2 16,4 13 7 25 14 N 1024,8 10 0,0
18.10.2018 15:00:00 16,2 9,7 15,8 16 9 29 16 NNE 1024,7 10 0,0
18.10.2018 14:00:00 14,9 9,6 15,3 22 12 29 16 N 1024,9 10 0,0
18.10.2018 13:00:00 14,9 10,1 15,0 18 10 29 16 N 1025,1 10 0,0
18.10.2018 12:00:00 14,3 10,6 14,7 18 10 29 16 NNE 1025,1 10 0,0
18.10.2018 11:00:00 13,9 11,1 14,2 18 10 32 18 N 1024,7 10 0,0
18.10.2018 10:00:00 13,2 12,0 13,0 13 7 22 12 N 1024,5 10 0,0
18.10.2018 09:00:00 12,1 12,1 11,8 8 4 11 6 NNW 1023,9 6 0,0
18.10.2018 08:00:00 11,9 11,8 11,7 8 4 7 4 N 1023,4 4,0 0,0
18.10.2018 07:00:00 11,1 11,0 10,8 8 4 11 6 NNW 1023,1 2,5 0,0
18.10.2018 06:00:00 10,8 10,6 10,1 4 2 7 4 NNW 1022,9 5 0,0
18.10.2018 05:00:00 9,3 9,2 7,9 2 1 7 4 - 1022,7 5 0,0
18.10.2018 04:00:00 9,9 9,7 8,5 2 1 7 4 NNW 1022,7 5 0,0
18.10.2018 03:00:00 11,4 11,0 10,6 5 3 7 4 NNW 1022,7 10 0,0
18.10.2018 02:00:00 13,2 12,0 12,9 5 3 7 4 NW 1022,3 10 0,0
18.10.2018 01:00:00 14,0 12,2 13,6 5 3 7 4 NNW 1022,0 10 0,0
18.10.2018 00:00:00 13,9 12,2 12,9 5 3 7 4 N 1021,9 10 0,0
17.10.2018 23:00:00 12,4 11,7 10,9 4 2 7 4 NNE 1021,6 10 0,0
17.10.2018 22:00:00 13,1 12,1 12,0 8 4 7 4 NNW 1021,4 10 0,0
17.10.2018 21:00:00 12,8 11,8 10,9 5 3 14 8 N 1020,9 10 0,0
17.10.2018 20:00:00 14,7 12,6 13,8 5 3 25 14 NNW 1020,5 10 0,0
17.10.2018 19:00:00 16,2 12,9 15,5 13 7 18 10 NNW 1020,1 10 0,0
17.10.2018 18:00:00 18,1 13,1 17,6 11 6 18 10 NW 1019,4 10 0,0
17.10.2018 17:00:00 19,5 13,3 19,7 8 4 14 8 NNW 1019,1 10 0,0
17.10.2018 16:00:00 19,9 13,6 21,3 5 3 18 10 NW 1019,0 10 0,0
17.10.2018 15:00:00 20,2 14,1 21,9 4 2 11 6 - 1018,9 10 0,0
17.10.2018 14:00:00 19,4 13,3 21,3 4 2 14 8 - 1019,1 10 0,0
17.10.2018 13:00:00 18,7 13,5 19,7 9 5 14 8 WNW 1019,3 10 0,0
17.10.2018 12:00:00 17,6 13,9 19,0 13 7 18 10 WNW 1019,5 10 0,0
17.10.2018 11:00:00 15,0 13,6 15,7 4 2 11 6 - 1019,3 5 0,0
17.10.2018 10:00:00 12,6 10,3 11,9 2 1 7 4 SE 1019,2 6 0,0
17.10.2018 09:00:00 9,3 8,7 7,4 4 2 7 4 - 1019,0 6 0,0
17.10.2018 08:00:00 9,0 8,0 7,3 5 3 7 4 ESE 1018,4 7 0,0
17.10.2018 07:00:00 10,9 9,2 8,7 5 3 11 6 ESE 1018,0 10 0,0
17.10.2018 06:00:00 10,2 8,8 8,3 2 1 4 2 SE 1018,2 10 0,0
17.10.2018 05:00:00 11,0 9,0 8,8 4 2 7 4 ESE 1017,8 10 0,0
17.10.2018 04:00:00 12,4 9,5 9,8 0 0 7 4 N 1018,0 10 0,0
17.10.2018 03:00:00 14,0 9,7 12,1 5 3 11 6 SSE 1017,7 10 0,0
17.10.2018 02:00:00 15,6 10,1 14,5 9 5 14 8 SSE 1017,8 10 0,0
17.10.2018 01:00:00 15,8 10,2 14,4 8 4 11 6 SE 1017,8 10 0,0
17.10.2018 00:00:00 12,9 9,3 11,3 2 1 11 6 - 1018,3 10 0,0
16.10.2018 23:00:00 14,8 9,8 12,2 5 3 11 6 ESE 1018,5 10 0,0
16.10.2018 22:00:00 12,5 9,3 11,0 5 3 11 6 ESE 1018,7 10 0,0
16.10.2018 21:00:00 13,7 9,7 11,3 5 3 11 6 ESE 1018,6 10 0,0
16.10.2018 20:00:00 15,6 10,6 13,1 8 4 11 6 ESE 1018,4 10 0,0
16.10.2018 19:00:00 16,8 11,2 14,1 5 3 11 6 E 1018,4 10 0,0
16.10.2018 18:00:00 19,0 13,3 18,2 4 2 14 8 SSE 1018,1 10 0,0
16.10.2018 17:00:00 22,8 11,3 23,1 11 6 18 10 S 1018,0 10 0,0
16.10.2018 16:00:00 23,4 10,4 23,9 11 6 18 10 S 1018,3 10 0,0
16.10.2018 15:00:00 22,9 11,5 23,4 11 6 22 12 S 1018,3 10 0,0
16.10.2018 14:00:00 22,6 11,6 23,8 13 7 22 12 S 1018,4 10 0,0
16.10.2018 13:00:00 21,8 11,0 23,0 15 8 22 12 S 1018,5 10 0,0
16.10.2018 12:00:00 20,7 11,7 21,3 11 6 18 10 S 1018,4 10 0,0
16.10.2018 11:00:00 18,5 12,7 18,3 5 3 11 6 SE 1018,1 10 0,0
16.10.2018 10:00:00 15,6 11,6 14,6 8 4 11 6 ESE 1018,2 9 0,0
16.10.2018 09:00:00 11,8 10,7 10,2 4 2 4 2 ESE 1018,1 10 0,0
16.10.2018 08:00:00 10,7 9,7 9,2 4 2 7 4 - 1017,7 10 0,0
16.10.2018 07:00:00 10,0 9,5 8,3 2 1 7 4 SSE 1017,3 10 0,0
16.10.2018 06:00:00 10,2 9,7 8,5 4 2 7 4 SE 1017,1 10 0,0
16.10.2018 05:00:00 10,1 9,4 8,9 4 2 7 4 SSE 1016,8 10 0,0
16.10.2018 04:00:00 11,5 10,9 9,3 2 1 4 2 N 1016,7 10 0,0
16.10.2018 03:00:00 12,3 11,4 10,7 2 1 4 2 SE 1016,3 10 0,0
16.10.2018 02:00:00 13,7 11,8 12,3 2 1 7 4 SE 1015,9 10 0,0
16.10.2018 01:00:00 14,2 12,5 12,8 0 0 4 2 N 1015,6 10 0,0
16.10.2018 00:00:00 14,7 12,8 13,6 2 1 7 4 SSE 1015,3 10 0,0
15.10.2018 23:00:00 15,9 12,6 14,8 5 3 11 6 - 1015,1 10 0,0
15.10.2018 22:00:00 15,9 12,6 14,9 4 2 7 4 SSE 1014,6 10 0,0
15.10.2018 21:00:00 16,4 13,3 15,3 2 1 4 2 E 1014,3 10 0,0
15.10.2018 20:00:00 17,8 12,7 16,5 9 5 11 6 ESE 1013,9 10 0,0
15.10.2018 19:00:00 18,1 13,4 16,4 5 3 7 4 ESE 1013,4 10 0,0
15.10.2018 18:00:00 20,2 12,6 19,3 8 4 22 12 SSW 1013,1 10 0,0
15.10.2018 17:00:00 22,4 12,7 23,0 16 9 29 16 SW 1012,5 10 0,0
15.10.2018 16:00:00 23,3 12,3 24,4 16 9 29 16 SW 1012,3 10 0,0
15.10.2018 15:00:00 22,7 12,0 24,4 13 7 25 14 SSW 1012,2 10 0,0
15.10.2018 14:00:00 21,2 11,8 21,7 16 9 29 16 S 1012,1 10 0,0
15.10.2018 13:00:00 21,6 11,9 23,0 18 10 36 19 SSW 1012,1 10 0,0
15.10.2018 12:00:00 21,1 11,6 22,4 18 10 32 18 SSW 1011,8 10 0,0
15.10.2018 11:00:00 20,3 10,3 21,3 21 11 32 18 S 1011,5 10 0,0
15.10.2018 10:00:00 18,3 10,3 18,5 13 7 18 10 S 1011,3 10 0,0
15.10.2018 09:00:00 16,0 9,8 13,9 5 3 14 8 SE 1010,8 10 0,0
15.10.2018 08:00:00 14,5 9,2 12,0 5 3 11 6 SE 1010,3 10 0,0
15.10.2018 07:00:00 14,9 9,4 13,7 5 3 11 6 SE 1009,9 10 0,0
15.10.2018 06:00:00 15,0 9,3 13,7 5 3 7 4 SE 1009,8 10 0,0
15.10.2018 05:00:00 14,6 9,4 13,0 5 3 7 4 SE 1009,5 10 0,0
15.10.2018 04:00:00 15,2 9,8 13,4 8 4 18 10 SE 1009,5 10 0,0
15.10.2018 03:00:00 15,4 10,4 13,4 8 4 11 6 SE 1009,5 10 0,0
15.10.2018 02:00:00 15,7 11,0 13,6 5 3 11 6 E 1009,2 10 0,0
15.10.2018 01:00:00 15,0 11,0 13,3 5 3 11 6 SSE 1009,2 10 0,0
15.10.2018 00:00:00 16,4 11,4 14,6 9 5 11 6 SE 1008,9 10 0,0
14.10.2018 23:00:00 17,2 11,1 15,1 9 5 11 6 SE 1008,8 10 0,0
14.10.2018 22:00:00 18,4 10,9 16,9 9 5 18 10 SSE 1008,4 10 0,0
14.10.2018 21:00:00 19,6 11,1 18,2 11 6 14 8 SE 1008,1 10 0,0

tt = Température de l'air
td = dewpoint
tt 5cm = Température de l'air 5cm
ff = Vitesse du vent
fx = gusts
dd = Direction du vent
ppp = reduced air pressure
vv = visibility
rr = Quantités de précipitations

stations d'obs. à proximité